COSMOS 1717

Satellite information

Favourite Embed

Satellite Type and Status

PAYLOADIN ORBIT

Key statistics

Satellite COSMOS 1717 at a glance.

Uptime

14542

Days in orbit

Revolutions

≈ 12.4

Per day

Orbit

LEO

Low Earth Orbit

Inclination

74.0

Latest

Satellite identification and parameters

Extended collection of information and parameters for COSMOS 1717.

Object identification

Identified? True

Debris? False

Object name: COSMOS 1717

International designator: 1986-002B

Object number (NORAD): 16450

Object ID (CCSDS): 16450

Country: COMMONWEALTH OF INDEPENDENT STATES (CIS)

Current information (Y/N): Y

RCS size: MEDIUM

Orbital parameters

Period: 115.85 minutes

Inclination: 73.9856 deg

SMA: 7872.094 km

Apoapsis: 1513.297 km

Periapsis: 1474.622 km

RAAN: 122.5518 deg

Eccentricy: 0.00245644

Argument of periapsis: 321.8249 deg

Mean anomaly: 67.7073 deg

Mean motion: 12.42989148 rev/day

Mean motion (dot): 0.00000014 rev/day2

B* drag term: 0.00021288977 1/REarth

Two-line elements (TLE)

Creation date: Nov. 1, 2025, 7:40 p.m.

Reference frame: TEME

Reference center: EARTH

Epoch: Nov. 1, 2025, 12:19 p.m. UTC

TLE line 0: 0 COSMOS 1717

TLE line 1: 1 16450U 86002B 25305.51320635 .00000014 00000-0 21289-3 0 9992

TLE line 2: 2 16450 73.9856 122.5518 0024564 321.8249 67.7073 12.42989148806507

Live tracking on map

Real-time ground track for satellite COSMOS 1717.

In-orbit conjunctions

A list of the most updated potential collisions computed for object COSMOS 1717.

Target Orbit TCA Probability of collision Miss distance Type
COSMOS 942 LEO 2025-02-02 01:46:28 0.0002659652 118.0 (m) PAYLOAD

Associated space launch

Military communications satellites

COSMOS 1717 was lifted into orbit during the mission ‘Kosmos-3M | Strela-1M 297-304’, on board a Kosmos-3M space rocket.

The launch took place on Jan. 9, 1986, 2:48 a.m. from 132/2.

For more information about the launch, click the button.

Launch to space Kosmos-3M | Strela-1M 297-304
Kosmos-3M | Strela-1M 297-304

Agency: N/A

Status: Launch Successful

Launch date: Jan. 9, 1986, 2:48 a.m. UTC

Rocket: Kosmos-3M

Launch pad: 132/2

Location: Plesetsk Cosmodrome, Russian Federation

...

Latest news about this satellite

There are no fresh news available about this satellite. Check back as we update our databases every day.


Newsletter sign-up

Weekly statistics, charts and insights to help you stay on top of the space industry.